ONEWEB-0365 (49291 NORAD) Tracking and Keplerian Element Data

This shows tracking and keplerian element data for the satellite.

Feedback or suggestion? Click here.




ElementValue
Catalog49291
NameONEWEB-0365
Epoch Orbit919
Epoch Day340.25001157
Epoch Year2021
RAAN276.2172
Inclination87.5095
Eccentricity0.0010318
Argument of Perigee78.8431
Mean Anonmoly25.6287
Mean Motion14.38986013
Decay Rate-0.00915683
L11 49291U 21090N 21340.25001157 -.00915683 00000+0 -31561+0 0 9996
L22 49291 87.5095 276.2172 0010318 78.8431 25.6287 14.38986013 9194

Live tracking and technical data element details for ONEWEB-0365 (NORAD 49291). ONEWEB-0365 can be tracked NOW for your location showing map with azimuth and elevation plus other details from your city location.

Track the satellite on the map from your city or location and see movement details for azimuth, elevation, latitude, longitude, range, height, and movement on the map or in text.







IsCatalogInMostPopularTable: catalog: 49291, numindb: 5
Update: records affected: 1



GetName: 49291 ONEWEB-0365

Hit Count: updated at: Mon, 06 Dec 2021 14:06:28 GMT